Okmulgee, OK

2:03 PM CST on December 11, 2017 (GMT -0600)
Okmulgee Regional

Weather History for KOKM - March, 2013

Change the Weather History Date:

Saturday, March 23, 2013

  Actual Average (KMKO) Record (KMKO)
Temperature  
Mean Temperature 41 °F -  
Max Temperature 44 °F 62 °F 82 °F (2017)
Min Temperature 38 °F 41 °F 27 °F (2002)
Degree Days  
Heating Degree Days 24    
Moisture  
Dew Point 40 °F    
Average Humidity 93    
Maximum Humidity 98    
Minimum Humidity 83    
Precipitation  
Precipitation 0.01 in - - ()
Sea Level Pressure  
Sea Level Pressure 29.82 in    
Wind  
Wind Speed 8 mph (NNE)    
Max Wind Speed 15 mph    
Max Gust Speed 21 mph    
Visibility 6 miles    
Events Rain , Thunderstorm    
Averages and records for this station are not official NWS values.
T = Trace of Precipitation, MM = Missing Value Source: NWS Daily Summary

Daily Weather History Graph

Daily Weather History Graph

Search for Another Location

Airport or City:

Trip Planner

Search our weather history database for the weather conditions in past years. The results will help you decide how hot, cold, wet, or windy it might be!

Date:

Astronomy

Mar. 23, 2013 Rise Set
Actual Time 7:22 AM CDT 7:38 PM CDT
Civil Twilight 6:57 AM CDT 8:03 PM CDT
Nautical Twilight 6:27 AM CDT 8:33 PM CDT
Astronomical Twilight 5:57 AM CDT 9:04 PM CDT
Moon 4:12 PM CDT (3/23) 4:52 AM CDT (3/23)
Length of Visible Light 13h 06m
Length of Day
12h 15m
Waxing Gibbous, 85% of the Moon is Illuminated
Mar 23
Waxing Gibbous
Mar 27
Full
Apr 2
Last Quarter
Apr 10
New
Apr 18
First Quarter

Hourly Weather History & Observations

Time (CDT) Temp. Windchill Dew Point Humidity Pressure Visibility Wind Dir Wind Speed Gust Speed Precip Events Conditions
12:15 AM 42.8 °F 38.0 °F 38.3 °F 84% 29.90 in 10.0 mi NNE 8.1 mph - N/A   Overcast
12:35 AM 42.8 °F 37.5 °F 38.1 °F 84% 29.90 in 10.0 mi NNE 9.2 mph - N/A   Overcast
1:15 AM 42.4 °F 38.1 °F 37.8 °F 83% 29.89 in 10.0 mi NNE 6.9 mph - N/A   Overcast
1:35 AM 42.4 °F 38.1 °F 37.8 °F 83% 29.89 in 10.0 mi NNE 6.9 mph - N/A   Overcast
1:55 AM 42.1 °F 36.1 °F 37.4 °F 83% 29.88 in 10.0 mi NNE 10.4 mph - N/A   Overcast
2:15 AM 41.9 °F 35.9 °F 37.4 °F 84% 29.87 in 10.0 mi NE 10.4 mph - N/A   Overcast
2:35 AM 41.9 °F 37.5 °F 37.4 °F 84% 29.87 in 10.0 mi NE 6.9 mph - N/A   Overcast
3:15 AM 41.5 °F 36.4 °F 37.4 °F 85% 29.86 in 10.0 mi NE 8.1 mph - N/A   Overcast
3:35 AM 41.4 °F 36.2 °F 37.0 °F 85% 29.85 in 10.0 mi NE 8.1 mph - N/A   Overcast
3:55 AM 41.2 °F 35.5 °F 36.9 °F 85% 29.84 in 10.0 mi NE 9.2 mph - N/A   Overcast
4:15 AM 41.0 °F 34.7 °F 36.9 °F 85% 29.85 in 10.0 mi NE 10.4 mph - N/A   Overcast
4:35 AM 41.0 °F 34.7 °F 36.9 °F 85% 29.84 in 10.0 mi NNE 10.4 mph - N/A   Overcast
4:55 AM 41.0 °F 34.7 °F 36.7 °F 85% 29.84 in 10.0 mi NE 10.4 mph - N/A   Overcast
5:15 AM 40.6 °F 35.4 °F 36.7 °F 86% 29.86 in 10.0 mi NE 8.1 mph - N/A   Overcast
5:35 AM 39.7 °F 33.2 °F 37.4 °F 91% 29.84 in 7.0 mi NE 10.4 mph - N/A   Overcast
5:55 AM 39.4 °F 35.2 °F 37.8 °F 94% 29.86 in 5.0 mi NE 5.8 mph - N/A   Overcast
6:15 AM 39.2 °F 33.6 °F 37.6 °F 94% 29.84 in 5.0 mi NNE 8.1 mph - N/A   Overcast
6:35 AM 39.2 °F 33.0 °F 37.6 °F 94% 29.86 in 5.0 mi NE 9.2 mph - N/A   Overcast
6:55 AM 39.2 °F 33.0 °F 37.8 °F 95% 29.85 in 4.0 mi NE 9.2 mph - N/A   Overcast
7:15 AM 39.2 °F 34.2 °F 37.9 °F 95% 29.88 in 4.0 mi North 6.9 mph - N/A   Overcast
7:35 AM 38.8 °F 32.1 °F 38.1 °F 97% 29.86 in 2.5 mi NNE 10.4 mph - N/A   Overcast
7:55 AM 38.8 °F 32.6 °F 38.3 °F 98% 29.86 in 1.5 mi NNE 9.2 mph - N/A   Overcast
8:15 AM 38.8 °F 33.2 °F 38.3 °F 98% 29.86 in 1.5 mi NNE 8.1 mph - N/A   Overcast
8:35 AM 38.8 °F 32.1 °F 38.3 °F 98% 29.87 in 2.0 mi NE 10.4 mph - N/A   Overcast
8:55 AM 39.2 °F 34.2 °F 38.3 °F 97% 29.88 in 1.8 mi NE 6.9 mph - N/A   Overcast
9:15 AM 39.4 °F 33.8 °F 38.7 °F 97% 29.87 in 2.0 mi NE 8.1 mph - N/A   Overcast
9:35 AM 39.4 °F 32.7 °F 38.5 °F 97% 29.86 in 2.0 mi NE 10.4 mph - N/A   Overcast
10:15 AM 39.7 °F 34.3 °F 38.8 °F 97% 29.87 in 2.5 mi NNE 8.1 mph - N/A   Overcast
10:55 AM 40.3 °F 33.0 °F 39.6 °F 97% 29.84 in 2.0 mi ENE 12.7 mph 17.3 mph N/A   Overcast
11:15 AM 40.8 °F 35.0 °F 40.1 °F 97% 29.84 in 1.5 mi ENE 9.2 mph - N/A   Overcast
11:35 AM 41.0 °F 35.8 °F 40.1 °F 97% 29.87 in 2.0 mi ENE 8.1 mph - N/A   Overcast
11:55 AM 41.2 °F 36.0 °F 40.6 °F 98% 29.86 in 2.5 mi ENE 8.1 mph - N/A   Overcast
12:15 PM 41.4 °F 37.6 °F 40.5 °F 97% 29.86 in 3.0 mi NE 5.8 mph - N/A   Overcast
12:35 PM 41.4 °F 37.6 °F 40.5 °F 97% 29.85 in 2.5 mi NNE 5.8 mph - N/A   Overcast
1:15 PM 41.9 °F 38.2 °F 41.0 °F 97% 29.84 in 1.5 mi NNE 5.8 mph - N/A   Overcast
2:15 PM 42.8 °F 38.6 °F 41.5 °F 95% 29.80 in 4.0 mi NE 6.9 mph - N/A   Overcast
2:35 PM 43.2 °F 39.7 °F 41.9 °F 95% 29.78 in 5.0 mi NE 5.8 mph - N/A   Overcast
3:15 PM 43.7 °F 40.3 °F 41.5 °F 92% 29.77 in 10.0 mi NNE 5.8 mph - N/A   Overcast
3:35 PM 43.7 °F - 41.7 °F 93% 29.77 in 10.0 mi Calm Calm - N/A   Overcast
3:55 PM 43.5 °F 39.4 °F 42.1 °F 95% 29.75 in 7.0 mi ENE 6.9 mph - N/A   Overcast
4:15 PM 43.9 °F 39.9 °F 42.3 °F 94% 29.74 in 7.0 mi NE 6.9 mph - N/A Rain , Thunderstorm Light Thunderstorms and Rain
4:35 PM 44.1 °F 39.5 °F 42.8 °F 95% 29.72 in 10.0 mi NE 8.1 mph - N/A   Overcast
4:55 PM 43.9 °F 40.5 °F 42.3 °F 94% 29.73 in 10.0 mi NNE 5.8 mph - N/A   Overcast
5:15 PM 44.1 °F 40.8 °F 42.1 °F 93% 29.72 in 10.0 mi NE 5.8 mph - N/A   Overcast
5:35 PM 44.2 °F 41.8 °F 42.6 °F 94% 29.73 in 10.0 mi ENE 4.6 mph - N/A   Overcast
5:55 PM 43.9 °F 41.3 °F 42.4 °F 95% 29.73 in 10.0 mi NNW 4.6 mph - N/A   Overcast
6:15 PM 43.7 °F - 42.4 °F 95% 29.73 in 7.0 mi Calm Calm - N/A   Overcast
6:55 PM 42.8 °F 38.6 °F 41.9 °F 97% 29.76 in 2.5 mi NNW 6.9 mph - N/A   Overcast
7:15 PM 42.4 °F 37.5 °F 41.9 °F 98% 29.77 in 1.5 mi NW 8.1 mph - N/A   Drizzle
7:35 PM 42.3 °F 38.6 °F 41.5 °F 97% 29.76 in 1.5 mi NNW 5.8 mph - 0.01 in   Drizzle
7:55 PM 42.1 °F 37.7 °F 41.4 °F 97% 29.75 in 3.0 mi North 6.9 mph - 0.01 in   Light Drizzle
8:15 PM 41.9 °F 37.5 °F 41.0 °F 97% 29.74 in 5.0 mi North 6.9 mph - N/A   Overcast
8:35 PM 41.9 °F 36.9 °F 41.0 °F 97% 29.73 in 5.0 mi NNE 8.1 mph - N/A   Overcast
8:55 PM 41.9 °F 36.9 °F 41.0 °F 97% 29.73 in 7.0 mi NNE 8.1 mph - N/A   Overcast
9:15 PM 41.5 °F 36.4 °F 41.0 °F 98% 29.72 in 5.0 mi NNE 8.1 mph - N/A   Overcast
9:35 PM 41.9 °F 35.9 °F 41.0 °F 97% 29.71 in 7.0 mi North 10.4 mph - N/A   Overcast
9:55 PM 41.9 °F 38.2 °F 40.8 °F 96% 29.77 in 7.0 mi NNW 5.8 mph - N/A   Overcast
10:15 PM 41.9 °F 39.0 °F 40.5 °F 95% 29.77 in 10.0 mi NNW 4.6 mph - N/A   Overcast
10:55 PM 41.9 °F 38.2 °F 40.5 °F 95% 29.81 in 7.0 mi West 5.8 mph - N/A   Overcast
11:15 PM 41.9 °F 39.0 °F 40.8 °F 96% 29.80 in 4.0 mi NW 4.6 mph - N/A Thunderstorm Unknown
11:35 PM 41.5 °F 38.6 °F 40.6 °F 97% 29.78 in 3.0 mi NW 4.6 mph - N/A   Drizzle
11:55 PM 41.0 °F 33.1 °F 39.6 °F 95% 29.86 in 3.0 mi WNW 15.0 mph 20.7 mph N/A   Drizzle